Year,Month,Day,Hour,Minute,Value (Times are PST for temperature in C)
2013,07,13,00,00,13.50
2013,07,13,00,01,13.40
2013,07,13,00,02,13.40
2013,07,13,00,03,13.40
2013,07,13,00,04,13.40
2013,07,13,00,05,13.40
2013,07,13,00,06,13.30
2013,07,13,00,07,13.30
2013,07,13,00,08,13.30
2013,07,13,00,09,13.30
2013,07,13,00,10,13.30
2013,07,13,00,11,13.30
2013,07,13,00,12,13.30
2013,07,13,00,13,13.30
2013,07,13,00,14,13.30
2013,07,13,00,15,13.30
2013,07,13,00,16,13.30
2013,07,13,00,17,13.30
2013,07,13,00,18,13.30
2013,07,13,00,19,13.20
2013,07,13,00,20,13.20
2013,07,13,00,21,13.20
2013,07,13,00,22,13.20
2013,07,13,00,23,13.20
2013,07,13,00,24,13.10
2013,07,13,00,25,13.10
2013,07,13,00,26,13.10
2013,07,13,00,27,13.10
2013,07,13,00,28,13.10
2013,07,13,00,29,13.10
2013,07,13,00,30,13.00
2013,07,13,00,31,13.00
2013,07,13,00,32,13.00
2013,07,13,00,33,13.00
2013,07,13,00,34,13.00
2013,07,13,00,35,13.00
2013,07,13,00,36,12.90
2013,07,13,00,37,12.90
2013,07,13,00,38,12.90
2013,07,13,00,39,12.90
2013,07,13,00,40,12.90
2013,07,13,00,41,12.90
2013,07,13,00,42,12.90
2013,07,13,00,43,12.90
2013,07,13,00,44,12.80
2013,07,13,00,45,12.80
2013,07,13,00,46,12.80
2013,07,13,00,47,12.80
2013,07,13,00,48,12.80
2013,07,13,00,49,12.80
2013,07,13,00,50,12.80
2013,07,13,00,51,12.80
2013,07,13,00,52,12.80
2013,07,13,00,53,12.80
2013,07,13,00,54,12.80
2013,07,13,00,55,12.80
2013,07,13,00,56,12.70
2013,07,13,00,57,12.70
2013,07,13,00,58,12.70
2013,07,13,00,59,12.70
2013,07,13,01,00,12.70
2013,07,13,01,01,12.70
2013,07,13,01,02,12.60
2013,07,13,01,03,12.60
2013,07,13,01,04,12.60
2013,07,13,01,05,12.60
2013,07,13,01,06,12.60
2013,07,13,01,07,12.60
2013,07,13,01,08,12.50
2013,07,13,01,09,12.50
2013,07,13,01,10,12.50
2013,07,13,01,11,12.50
2013,07,13,01,12,12.50
2013,07,13,01,13,12.50
2013,07,13,01,14,12.50
2013,07,13,01,15,12.40
2013,07,13,01,16,12.40
2013,07,13,01,17,12.40
2013,07,13,01,18,12.40
2013,07,13,01,19,12.40
2013,07,13,01,20,12.40
2013,07,13,01,21,12.40
2013,07,13,01,22,12.30
2013,07,13,01,23,12.30
2013,07,13,01,24,12.30
2013,07,13,01,25,12.30
2013,07,13,01,26,12.30
2013,07,13,01,27,12.30
2013,07,13,01,28,12.30
2013,07,13,01,29,12.30
2013,07,13,01,30,12.30
2013,07,13,01,31,12.30
2013,07,13,01,32,12.30
2013,07,13,01,33,12.30
2013,07,13,01,34,12.30
2013,07,13,01,35,12.30
2013,07,13,01,36,12.30
2013,07,13,01,37,12.30
2013,07,13,01,38,12.20
2013,07,13,01,39,12.20
2013,07,13,01,40,12.20
2013,07,13,01,41,12.20
2013,07,13,01,42,12.20
2013,07,13,01,43,12.20
2013,07,13,01,44,12.20
2013,07,13,01,45,12.20
2013,07,13,01,46,12.20
2013,07,13,01,47,12.20
2013,07,13,01,48,12.10
2013,07,13,01,49,12.10
2013,07,13,01,50,12.10
2013,07,13,01,51,12.10
2013,07,13,01,52,12.10
2013,07,13,01,53,12.10
2013,07,13,01,54,12.10
2013,07,13,01,55,12.10
2013,07,13,01,56,12.10
2013,07,13,01,57,12.10
2013,07,13,01,58,12.10
2013,07,13,01,59,12.10
2013,07,13,02,00,12.10
2013,07,13,02,01,12.10
2013,07,13,02,02,12.10
2013,07,13,02,03,12.10
2013,07,13,02,04,12.10
2013,07,13,02,05,12.10
2013,07,13,02,06,12.10
2013,07,13,02,07,12.10
2013,07,13,02,08,12.10
2013,07,13,02,09,12.10
2013,07,13,02,10,12.00
2013,07,13,02,11,12.00
2013,07,13,02,12,12.00
2013,07,13,02,13,12.00
2013,07,13,02,14,12.00
2013,07,13,02,15,12.00
2013,07,13,02,16,12.00
2013,07,13,02,17,12.00
2013,07,13,02,18,11.90
2013,07,13,02,19,11.90
2013,07,13,02,20,11.90
2013,07,13,02,21,11.90
2013,07,13,02,22,11.90
2013,07,13,02,23,11.90
2013,07,13,02,24,11.90
2013,07,13,02,25,11.90
2013,07,13,02,26,11.90
2013,07,13,02,27,11.90
2013,07,13,02,28,11.90
2013,07,13,02,29,11.90
2013,07,13,02,30,11.90
2013,07,13,02,31,11.90
2013,07,13,02,32,11.90
2013,07,13,02,33,11.90
2013,07,13,02,34,11.90
2013,07,13,02,35,11.80
2013,07,13,02,36,11.80
2013,07,13,02,37,11.80
2013,07,13,02,38,11.90
2013,07,13,02,39,11.90
2013,07,13,02,40,11.90
2013,07,13,02,41,11.90
2013,07,13,02,42,11.90
2013,07,13,02,43,11.90
2013,07,13,02,44,11.90
2013,07,13,02,45,11.90
2013,07,13,02,46,11.90
2013,07,13,02,47,11.90
2013,07,13,02,48,11.90
2013,07,13,02,49,11.80
2013,07,13,02,50,11.80
2013,07,13,02,51,11.80
2013,07,13,02,52,11.80
2013,07,13,02,53,11.80
2013,07,13,02,54,11.80
2013,07,13,02,55,11.80
2013,07,13,02,56,11.80
2013,07,13,02,57,11.80
2013,07,13,02,58,11.80
2013,07,13,02,59,11.80
2013,07,13,03,00,11.80
2013,07,13,03,01,11.80
2013,07,13,03,02,11.80
2013,07,13,03,03,11.80
2013,07,13,03,04,11.80
2013,07,13,03,05,11.80
2013,07,13,03,06,11.80
2013,07,13,03,07,11.70
2013,07,13,03,08,11.70
2013,07,13,03,09,11.70
2013,07,13,03,10,11.70
2013,07,13,03,11,11.70
2013,07,13,03,12,11.70
2013,07,13,03,13,11.70
2013,07,13,03,14,11.70
2013,07,13,03,15,11.70
2013,07,13,03,16,11.70
2013,07,13,03,17,11.60
2013,07,13,03,18,11.60
2013,07,13,03,19,11.60
2013,07,13,03,20,11.60
2013,07,13,03,21,11.60
2013,07,13,03,22,11.60
2013,07,13,03,23,11.60
2013,07,13,03,24,11.60
2013,07,13,03,25,11.60
2013,07,13,03,26,11.60
2013,07,13,03,27,11.60
2013,07,13,03,28,11.60
2013,07,13,03,29,11.60
2013,07,13,03,30,11.60
2013,07,13,03,31,11.60
2013,07,13,03,32,11.60
2013,07,13,03,33,11.60
2013,07,13,03,34,11.60
2013,07,13,03,35,11.60
2013,07,13,03,36,11.60
2013,07,13,03,37,11.60
2013,07,13,03,38,11.60
2013,07,13,03,39,11.60
2013,07,13,03,40,11.60
2013,07,13,03,41,11.50
2013,07,13,03,42,11.40
2013,07,13,03,43,11.40
2013,07,13,03,44,11.40
2013,07,13,03,45,11.40
2013,07,13,03,46,11.40
2013,07,13,03,47,11.40
2013,07,13,03,48,11.40
2013,07,13,03,49,11.40
2013,07,13,03,50,11.40
2013,07,13,03,51,11.40
2013,07,13,03,52,11.40
2013,07,13,03,53,11.40
2013,07,13,03,54,11.40
2013,07,13,03,55,11.40
2013,07,13,03,56,11.40
2013,07,13,03,57,11.40
2013,07,13,03,58,11.30
2013,07,13,03,59,11.30
2013,07,13,04,00,11.30
2013,07,13,04,01,11.30
2013,07,13,04,02,11.30
2013,07,13,04,03,11.30
2013,07,13,04,04,11.30
2013,07,13,04,05,11.30
2013,07,13,04,06,11.30
2013,07,13,04,07,11.30
2013,07,13,04,08,11.30
2013,07,13,04,09,11.30
2013,07,13,04,10,11.30
2013,07,13,04,11,11.30
2013,07,13,04,12,11.30
2013,07,13,04,13,11.30
2013,07,13,04,14,11.30
2013,07,13,04,15,11.20
2013,07,13,04,16,11.20
2013,07,13,04,17,11.20
2013,07,13,04,18,11.20
2013,07,13,04,19,11.20
2013,07,13,04,20,11.20
2013,07,13,04,21,11.20
2013,07,13,04,22,11.20
2013,07,13,04,23,11.10
2013,07,13,04,24,11.10
2013,07,13,04,25,11.10
2013,07,13,04,26,11.10
2013,07,13,04,27,11.10
2013,07,13,04,28,11.10
2013,07,13,04,29,11.10
2013,07,13,04,30,11.10
2013,07,13,04,31,11.10
2013,07,13,04,32,11.10
2013,07,13,04,33,11.10
2013,07,13,04,34,11.10
2013,07,13,04,35,11.10
2013,07,13,04,36,11.10
2013,07,13,04,37,11.10
2013,07,13,04,38,11.10
2013,07,13,04,39,11.10
2013,07,13,04,40,11.10
2013,07,13,04,41,11.10
2013,07,13,04,42,11.10
2013,07,13,04,43,11.10
2013,07,13,04,44,11.10
2013,07,13,04,45,11.10
2013,07,13,04,46,11.10
2013,07,13,04,47,11.10
2013,07,13,04,48,11.10
2013,07,13,04,49,11.10
2013,07,13,04,50,11.00
2013,07,13,04,51,10.90
2013,07,13,04,52,10.90
2013,07,13,04,53,10.90
2013,07,13,04,54,11.00
2013,07,13,04,55,11.10
2013,07,13,04,56,11.10
2013,07,13,04,57,11.10
2013,07,13,04,58,11.10
2013,07,13,04,59,11.10
2013,07,13,05,00,11.10
2013,07,13,05,01,11.10
2013,07,13,05,02,11.00
2013,07,13,05,03,10.90
2013,07,13,05,04,10.90
2013,07,13,05,05,10.90
2013,07,13,05,06,10.90
2013,07,13,05,07,10.90
2013,07,13,05,08,10.90
2013,07,13,05,09,10.90
2013,07,13,05,10,10.90
2013,07,13,05,11,10.90
2013,07,13,05,12,10.80
2013,07,13,05,13,10.80
2013,07,13,05,14,10.80
2013,07,13,05,15,10.70
2013,07,13,05,16,10.70
2013,07,13,05,17,10.60
2013,07,13,05,18,10.60
2013,07,13,05,19,10.60
2013,07,13,05,20,10.60
2013,07,13,05,21,10.60
2013,07,13,05,22,10.50
2013,07,13,05,23,10.40
2013,07,13,05,24,10.40
2013,07,13,05,25,10.40
2013,07,13,05,26,10.40
2013,07,13,05,27,10.40
2013,07,13,05,28,10.40
2013,07,13,05,29,10.40
2013,07,13,05,30,10.40
2013,07,13,05,31,10.40
2013,07,13,05,32,10.40
2013,07,13,05,33,10.40
2013,07,13,05,34,10.40
2013,07,13,05,35,10.40
2013,07,13,05,36,10.40
2013,07,13,05,37,10.40
2013,07,13,05,38,10.40
2013,07,13,05,39,10.40
2013,07,13,05,40,10.40
2013,07,13,05,41,10.40
2013,07,13,05,42,10.40
2013,07,13,05,43,10.40
2013,07,13,05,44,10.40
2013,07,13,05,45,10.40
2013,07,13,05,46,10.40
2013,07,13,05,47,10.40
2013,07,13,05,48,10.40
2013,07,13,05,49,10.40
2013,07,13,05,50,10.40
2013,07,13,05,51,10.40
2013,07,13,05,52,10.40
2013,07,13,05,53,10.40
2013,07,13,05,54,10.40
2013,07,13,05,55,10.40
2013,07,13,05,56,10.40
2013,07,13,05,57,10.40
2013,07,13,05,58,10.40
2013,07,13,05,59,10.40
2013,07,13,06,00,10.40
2013,07,13,06,01,10.40
2013,07,13,06,02,10.40
2013,07,13,06,03,10.50
2013,07,13,06,04,10.60
2013,07,13,06,05,10.60
2013,07,13,06,06,10.60
2013,07,13,06,07,10.60
2013,07,13,06,08,10.60
2013,07,13,06,09,10.60
2013,07,13,06,10,10.60
2013,07,13,06,11,10.60
2013,07,13,06,12,10.70
2013,07,13,06,13,10.70
2013,07,13,06,14,10.70
2013,07,13,06,15,10.70
2013,07,13,06,16,10.70
2013,07,13,06,17,10.80
2013,07,13,06,18,10.80
2013,07,13,06,19,10.80
2013,07,13,06,20,10.80
2013,07,13,06,21,10.90
2013,07,13,06,22,10.90
2013,07,13,06,23,10.90
2013,07,13,06,24,10.90
2013,07,13,06,25,10.90
2013,07,13,06,26,10.90
2013,07,13,06,27,11.00
2013,07,13,06,28,11.10
2013,07,13,06,29,11.10
2013,07,13,06,30,11.10
2013,07,13,06,31,11.10
2013,07,13,06,32,11.10
2013,07,13,06,33,11.10
2013,07,13,06,34,11.10
2013,07,13,06,35,11.20
2013,07,13,06,36,11.20
2013,07,13,06,37,11.20
2013,07,13,06,38,11.30
2013,07,13,06,39,11.30
2013,07,13,06,40,11.40
2013,07,13,06,41,11.40
2013,07,13,06,42,11.40
2013,07,13,06,43,11.40
2013,07,13,06,44,11.40
2013,07,13,06,45,11.60
2013,07,13,06,46,11.60
2013,07,13,06,47,11.60
2013,07,13,06,48,11.60
2013,07,13,06,49,11.70
2013,07,13,06,50,11.70
2013,07,13,06,51,11.80
2013,07,13,06,52,11.80
2013,07,13,06,53,11.80
2013,07,13,06,54,11.80
2013,07,13,06,55,11.80
2013,07,13,06,56,11.80
2013,07,13,06,57,11.80
2013,07,13,06,58,11.90
2013,07,13,06,59,11.90
2013,07,13,07,00,11.90
2013,07,13,07,01,12.00
2013,07,13,07,02,12.00
2013,07,13,07,03,12.10
2013,07,13,07,04,12.10
2013,07,13,07,05,12.10
2013,07,13,07,06,12.20
2013,07,13,07,07,12.20
2013,07,13,07,08,12.30
2013,07,13,07,09,12.30
2013,07,13,07,10,12.30
2013,07,13,07,11,12.40
2013,07,13,07,12,12.40
2013,07,13,07,13,12.50
2013,07,13,07,14,12.50
2013,07,13,07,15,12.50
2013,07,13,07,16,12.60
2013,07,13,07,17,12.60
2013,07,13,07,18,12.70
2013,07,13,07,19,12.70
2013,07,13,07,20,12.80
2013,07,13,07,21,12.80
2013,07,13,07,22,12.80
2013,07,13,07,23,12.80
2013,07,13,07,24,12.80
2013,07,13,07,25,12.90
2013,07,13,07,26,12.90
2013,07,13,07,27,13.00
2013,07,13,07,28,13.00
2013,07,13,07,29,13.00
2013,07,13,07,30,13.10
2013,07,13,07,31,13.10
2013,07,13,07,32,13.20
2013,07,13,07,33,13.20
2013,07,13,07,34,13.30
2013,07,13,07,35,13.30
2013,07,13,07,36,13.40
2013,07,13,07,37,13.40
2013,07,13,07,38,13.50
2013,07,13,07,39,13.50
2013,07,13,07,40,13.60
2013,07,13,07,41,13.60
2013,07,13,07,42,13.60
2013,07,13,07,43,13.70
2013,07,13,07,44,13.70
2013,07,13,07,45,13.80
2013,07,13,07,46,13.90
2013,07,13,07,47,13.90
2013,07,13,07,48,14.00
2013,07,13,07,49,14.00
2013,07,13,07,50,14.00
2013,07,13,07,51,14.10
2013,07,13,07,52,14.10
2013,07,13,07,53,14.20
2013,07,13,07,54,14.20
2013,07,13,07,55,14.30
2013,07,13,07,56,14.40
2013,07,13,07,57,14.50
2013,07,13,07,58,14.50
2013,07,13,07,59,14.50
2013,07,13,08,00,14.70
2013,07,13,08,01,14.70
2013,07,13,08,02,14.80
2013,07,13,08,03,14.90
2013,07,13,08,04,15.00
2013,07,13,08,05,15.10
2013,07,13,08,06,15.20
2013,07,13,08,07,15.30
2013,07,13,08,08,15.30
2013,07,13,08,09,15.40
2013,07,13,08,10,15.40
2013,07,13,08,11,15.40
2013,07,13,08,12,15.40
2013,07,13,08,13,15.50
2013,07,13,08,14,15.50
2013,07,13,08,15,15.60
2013,07,13,08,16,15.60
2013,07,13,08,17,15.80
2013,07,13,08,18,15.80
2013,07,13,08,19,15.90
2013,07,13,08,20,16.00
2013,07,13,08,21,16.10
2013,07,13,08,22,16.20
2013,07,13,08,23,16.30
2013,07,13,08,24,16.40
2013,07,13,08,25,16.40
2013,07,13,08,26,16.40
2013,07,13,08,27,16.30
2013,07,13,08,28,16.30
2013,07,13,08,29,16.30
2013,07,13,08,30,16.20
2013,07,13,08,31,16.20
2013,07,13,08,32,16.20
2013,07,13,08,33,16.20
2013,07,13,08,34,16.20
2013,07,13,08,35,16.20
2013,07,13,08,36,16.10
2013,07,13,08,37,16.10
2013,07,13,08,38,16.10
2013,07,13,08,39,16.00
2013,07,13,08,40,15.90
2013,07,13,08,41,15.90
2013,07,13,08,42,15.90
2013,07,13,08,43,16.00
2013,07,13,08,44,16.10
2013,07,13,08,45,16.10
2013,07,13,08,46,16.20
2013,07,13,08,47,16.20
2013,07,13,08,48,16.30
2013,07,13,08,49,16.40
2013,07,13,08,50,16.40
2013,07,13,08,51,16.60
2013,07,13,08,52,16.60
2013,07,13,08,53,16.70
2013,07,13,08,54,16.70
2013,07,13,08,55,16.80
2013,07,13,08,56,16.90
2013,07,13,08,57,17.00
2013,07,13,08,58,17.00
2013,07,13,08,59,17.10
2013,07,13,09,00,17.10
2013,07,13,09,01,17.10
2013,07,13,09,02,17.20
2013,07,13,09,03,17.20
2013,07,13,09,04,17.20
2013,07,13,09,05,17.30
2013,07,13,09,06,17.30
2013,07,13,09,07,17.20
2013,07,13,09,08,17.20
2013,07,13,09,09,17.20
2013,07,13,09,10,17.10
2013,07,13,09,11,17.00
2013,07,13,09,12,17.00
2013,07,13,09,13,16.90
2013,07,13,09,14,16.90
2013,07,13,09,15,16.80
2013,07,13,09,16,16.70
2013,07,13,09,17,16.70
2013,07,13,09,18,16.70
2013,07,13,09,19,16.80
2013,07,13,09,20,16.90
2013,07,13,09,21,16.90
2013,07,13,09,22,17.00
2013,07,13,09,23,17.00
2013,07,13,09,24,17.00
2013,07,13,09,25,17.00
2013,07,13,09,26,17.00
2013,07,13,09,27,17.10
2013,07,13,09,28,17.10
2013,07,13,09,29,17.10
2013,07,13,09,30,17.20
2013,07,13,09,31,17.30
2013,07,13,09,32,17.30
2013,07,13,09,33,17.30
2013,07,13,09,34,17.30
2013,07,13,09,35,17.30
2013,07,13,09,36,17.40
2013,07,13,09,37,17.40
2013,07,13,09,38,17.30
2013,07,13,09,39,17.30
2013,07,13,09,40,17.30
2013,07,13,09,41,17.20
2013,07,13,09,42,17.30
2013,07,13,09,43,17.30
2013,07,13,09,44,17.30
2013,07,13,09,45,17.30
2013,07,13,09,46,17.30
2013,07,13,09,47,17.30
2013,07,13,09,48,17.30
2013,07,13,09,49,17.30
2013,07,13,09,50,17.30
2013,07,13,09,51,17.30
2013,07,13,09,52,17.40
2013,07,13,09,53,17.40
2013,07,13,09,54,17.40
2013,07,13,09,55,17.30
2013,07,13,09,56,17.30
2013,07,13,09,57,17.30
2013,07,13,09,58,17.30
2013,07,13,09,59,17.30
2013,07,13,10,00,17.30
2013,07,13,10,01,17.30
2013,07,13,10,02,17.30
2013,07,13,10,03,17.30
2013,07,13,10,04,17.20
2013,07,13,10,05,17.20
2013,07,13,10,06,17.30
2013,07,13,10,07,17.30
2013,07,13,10,08,17.40
2013,07,13,10,09,17.40
2013,07,13,10,10,17.40
2013,07,13,10,11,17.30
2013,07,13,10,12,17.30
2013,07,13,10,13,17.30
2013,07,13,10,14,17.30
2013,07,13,10,15,17.20
2013,07,13,10,16,17.30
2013,07,13,10,17,17.30
2013,07,13,10,18,17.30
2013,07,13,10,19,17.30
2013,07,13,10,20,17.40
2013,07,13,10,21,17.40
2013,07,13,10,22,17.30
2013,07,13,10,23,17.30
2013,07,13,10,24,17.30
2013,07,13,10,25,17.30
2013,07,13,10,26,17.30
2013,07,13,10,27,17.40
2013,07,13,10,28,17.50
2013,07,13,10,29,17.60
2013,07,13,10,30,17.60
2013,07,13,10,31,17.60
2013,07,13,10,32,17.60
2013,07,13,10,33,17.60
2013,07,13,10,34,17.60
2013,07,13,10,35,17.50
2013,07,13,10,36,17.60
2013,07,13,10,37,17.60
2013,07,13,10,38,17.50
2013,07,13,10,39,17.40
2013,07,13,10,40,17.40
2013,07,13,10,41,17.40
2013,07,13,10,42,17.30
2013,07,13,10,43,17.30
2013,07,13,10,44,17.30
2013,07,13,10,45,17.30
2013,07,13,10,46,17.20
2013,07,13,10,47,17.20
2013,07,13,10,48,17.20
2013,07,13,10,49,17.30
2013,07,13,10,50,17.30
2013,07,13,10,51,17.40
2013,07,13,10,52,17.50
2013,07,13,10,53,17.50
2013,07,13,10,54,17.60
2013,07,13,10,55,17.50
2013,07,13,10,56,17.50
2013,07,13,10,57,17.40
2013,07,13,10,58,17.50
2013,07,13,10,59,17.50
2013,07,13,11,00,17.50
2013,07,13,11,01,17.40
2013,07,13,11,02,17.40
2013,07,13,11,03,17.40
2013,07,13,11,04,17.40
2013,07,13,11,05,17.40
2013,07,13,11,06,17.50
2013,07,13,11,07,17.60
2013,07,13,11,08,17.60
2013,07,13,11,09,17.70
2013,07,13,11,10,17.70
2013,07,13,11,11,17.80
2013,07,13,11,12,17.80
2013,07,13,11,13,17.90
2013,07,13,11,14,17.90
2013,07,13,11,15,17.90
2013,07,13,11,16,17.90
2013,07,13,11,17,17.90
2013,07,13,11,18,17.90
2013,07,13,11,19,17.90
2013,07,13,11,20,17.90
2013,07,13,11,21,17.70
2013,07,13,11,22,17.60
2013,07,13,11,23,17.60
2013,07,13,11,24,17.70
2013,07,13,11,25,17.80
2013,07,13,11,26,17.80
2013,07,13,11,27,17.90
2013,07,13,11,28,17.90
2013,07,13,11,29,17.90
2013,07,13,11,30,18.00
2013,07,13,11,31,18.10
2013,07,13,11,32,18.20
2013,07,13,11,33,18.20
2013,07,13,11,34,18.20
2013,07,13,11,35,18.20
2013,07,13,11,36,18.20
2013,07,13,11,37,18.20
2013,07,13,11,38,18.20
2013,07,13,11,39,18.20
2013,07,13,11,40,18.20
2013,07,13,11,41,18.20
2013,07,13,11,42,18.30
2013,07,13,11,43,18.40
2013,07,13,11,44,18.50
2013,07,13,11,45,18.50
2013,07,13,11,46,18.50
2013,07,13,11,47,18.60
2013,07,13,11,48,18.70
2013,07,13,11,49,18.80
2013,07,13,11,50,18.90
2013,07,13,11,51,18.90
2013,07,13,11,52,18.90
2013,07,13,11,53,18.90
2013,07,13,11,54,18.90
2013,07,13,11,55,19.00
2013,07,13,11,56,19.10
2013,07,13,11,57,19.10
2013,07,13,11,58,19.10
2013,07,13,11,59,19.20
2013,07,13,12,00,19.20
2013,07,13,12,01,19.20
2013,07,13,12,02,19.20
2013,07,13,12,03,19.20
2013,07,13,12,04,19.10
2013,07,13,12,05,19.10
2013,07,13,12,06,19.10
2013,07,13,12,07,19.00
2013,07,13,12,08,18.90
2013,07,13,12,09,18.90
2013,07,13,12,10,18.80
2013,07,13,12,11,18.70
2013,07,13,12,12,18.60
2013,07,13,12,13,18.50
2013,07,13,12,14,18.40
2013,07,13,12,15,18.30
2013,07,13,12,16,18.30
2013,07,13,12,17,18.50
2013,07,13,12,18,18.60
2013,07,13,12,19,18.70
2013,07,13,12,20,18.80
2013,07,13,12,21,18.80
2013,07,13,12,22,18.80
2013,07,13,12,23,18.80
2013,07,13,12,24,18.90
2013,07,13,12,25,18.80
2013,07,13,12,26,18.80
2013,07,13,12,27,18.80
2013,07,13,12,28,18.80
2013,07,13,12,29,18.80
2013,07,13,12,30,18.90
2013,07,13,12,31,18.90
2013,07,13,12,32,18.90
2013,07,13,12,33,18.90
2013,07,13,12,34,19.00
2013,07,13,12,35,19.10
2013,07,13,12,36,19.10
2013,07,13,12,37,19.20
2013,07,13,12,38,19.30
2013,07,13,12,39,19.30
2013,07,13,12,40,19.10
2013,07,13,12,41,19.10
2013,07,13,12,42,19.10
2013,07,13,12,43,18.90
2013,07,13,12,44,18.90
2013,07,13,12,45,18.90
2013,07,13,12,46,18.90
2013,07,13,12,47,18.80
2013,07,13,12,48,18.80
2013,07,13,12,49,18.90
2013,07,13,12,50,18.90
2013,07,13,12,51,18.90
2013,07,13,12,52,18.90
2013,07,13,12,53,18.90
2013,07,13,12,54,18.90
2013,07,13,12,55,18.90
2013,07,13,12,56,18.90
2013,07,13,12,57,19.00
2013,07,13,12,58,19.10
2013,07,13,12,59,19.10
2013,07,13,13,00,19.10
2013,07,13,13,01,19.10
2013,07,13,13,02,19.20
2013,07,13,13,03,19.20
2013,07,13,13,04,19.20
2013,07,13,13,05,19.30
2013,07,13,13,06,19.20
2013,07,13,13,07,19.10
2013,07,13,13,08,19.10
2013,07,13,13,09,19.10
2013,07,13,13,10,19.10
2013,07,13,13,11,19.10
2013,07,13,13,12,19.20
2013,07,13,13,13,19.20
2013,07,13,13,14,19.40
2013,07,13,13,15,19.40
2013,07,13,13,16,19.40
2013,07,13,13,17,19.40
2013,07,13,13,18,19.30
2013,07,13,13,19,19.10
2013,07,13,13,20,19.10
2013,07,13,13,21,19.10
2013,07,13,13,22,19.10
2013,07,13,13,23,19.10
2013,07,13,13,24,19.10
2013,07,13,13,25,19.20
2013,07,13,13,26,19.30
2013,07,13,13,27,19.30
2013,07,13,13,28,19.30
2013,07,13,13,29,19.30
2013,07,13,13,30,19.30
2013,07,13,13,31,19.30
2013,07,13,13,32,19.30
2013,07,13,13,33,19.20
2013,07,13,13,34,19.20
2013,07,13,13,35,19.10
2013,07,13,13,36,19.10
2013,07,13,13,37,19.30
2013,07,13,13,38,19.30
2013,07,13,13,39,19.40
2013,07,13,13,40,19.50
2013,07,13,13,41,19.50
2013,07,13,13,42,19.50
2013,07,13,13,43,19.60
2013,07,13,13,44,19.70
2013,07,13,13,45,19.70
2013,07,13,13,46,19.70
2013,07,13,13,47,19.70
2013,07,13,13,48,19.80
2013,07,13,13,49,19.80
2013,07,13,13,50,19.90
2013,07,13,13,51,19.90
2013,07,13,13,52,19.90
2013,07,13,13,53,19.90
2013,07,13,13,54,19.90
2013,07,13,13,55,19.90
2013,07,13,13,56,19.90
2013,07,13,13,57,19.90
2013,07,13,13,58,20.10
2013,07,13,13,59,20.20
2013,07,13,14,00,20.20
2013,07,13,14,01,20.20
2013,07,13,14,02,20.20
2013,07,13,14,03,20.20
2013,07,13,14,04,20.20
2013,07,13,14,05,20.10
2013,07,13,14,06,20.10
2013,07,13,14,07,20.20
2013,07,13,14,08,20.20
2013,07,13,14,09,20.20
2013,07,13,14,10,20.20
2013,07,13,14,11,20.20
2013,07,13,14,12,20.40
2013,07,13,14,13,20.50
2013,07,13,14,14,20.60
2013,07,13,14,15,20.70
2013,07,13,14,16,20.70
2013,07,13,14,17,20.70
2013,07,13,14,18,20.70
2013,07,13,14,19,20.60
2013,07,13,14,20,20.50
2013,07,13,14,21,20.40
2013,07,13,14,22,20.40
2013,07,13,14,23,20.40
2013,07,13,14,24,20.30
2013,07,13,14,25,20.30
2013,07,13,14,26,20.30
2013,07,13,14,27,20.40
2013,07,13,14,28,20.50
2013,07,13,14,29,20.50
2013,07,13,14,30,20.50
2013,07,13,14,31,20.60
2013,07,13,14,32,20.70
2013,07,13,14,33,20.80
2013,07,13,14,34,20.80
2013,07,13,14,35,20.70
2013,07,13,14,36,20.70
2013,07,13,14,37,20.70
2013,07,13,14,38,20.80
2013,07,13,14,39,20.90
2013,07,13,14,40,20.80
2013,07,13,14,41,20.90
2013,07,13,14,42,21.00
2013,07,13,14,43,21.20
2013,07,13,14,44,21.30
2013,07,13,14,45,21.50
2013,07,13,14,46,21.60
2013,07,13,14,47,21.60
2013,07,13,14,48,21.60
2013,07,13,14,49,21.60
2013,07,13,14,50,21.60
2013,07,13,14,51,21.60
2013,07,13,14,52,21.60
2013,07,13,14,53,21.60
2013,07,13,14,54,21.70
2013,07,13,14,55,21.80
2013,07,13,14,56,21.90
2013,07,13,14,57,21.80
2013,07,13,14,58,21.70
2013,07,13,14,59,21.70
2013,07,13,15,00,21.70
2013,07,13,15,01,21.70
2013,07,13,15,02,21.70
2013,07,13,15,03,21.50
2013,07,13,15,04,21.40
2013,07,13,15,05,21.30
2013,07,13,15,06,21.30
2013,07,13,15,07,21.20
2013,07,13,15,08,21.20
2013,07,13,15,09,21.30
2013,07,13,15,10,21.40
2013,07,13,15,11,21.60
2013,07,13,15,12,21.80
2013,07,13,15,13,22.00
2013,07,13,15,14,22.00
2013,07,13,15,15,22.00
2013,07,13,15,16,22.00
2013,07,13,15,17,21.90
2013,07,13,15,18,21.80
2013,07,13,15,19,21.70
2013,07,13,15,20,21.70
2013,07,13,15,21,21.70
2013,07,13,15,22,21.70
2013,07,13,15,23,21.70
2013,07,13,15,24,21.80
2013,07,13,15,25,21.90
2013,07,13,15,26,22.00
2013,07,13,15,27,22.10
2013,07,13,15,28,22.20
2013,07,13,15,29,22.20
2013,07,13,15,30,22.20
2013,07,13,15,31,22.10
2013,07,13,15,32,22.00
2013,07,13,15,33,21.90
2013,07,13,15,34,21.90
2013,07,13,15,35,22.00
2013,07,13,15,36,22.00
2013,07,13,15,37,22.00
2013,07,13,15,38,22.10
2013,07,13,15,39,22.20
2013,07,13,15,40,22.20
2013,07,13,15,41,22.20
2013,07,13,15,42,22.10
2013,07,13,15,43,22.10
2013,07,13,15,44,22.10
2013,07,13,15,45,22.10
2013,07,13,15,46,22.00
2013,07,13,15,47,21.90
2013,07,13,15,48,21.90
2013,07,13,15,49,21.80
2013,07,13,15,50,21.80
2013,07,13,15,51,21.80
2013,07,13,15,52,21.80
2013,07,13,15,53,21.80
2013,07,13,15,54,21.80
2013,07,13,15,55,21.90
2013,07,13,15,56,22.00
2013,07,13,15,57,22.20
2013,07,13,15,58,22.30
2013,07,13,15,59,22.30
2013,07,13,16,00,22.50
2013,07,13,16,01,22.50
2013,07,13,16,02,22.50
2013,07,13,16,03,22.50
2013,07,13,16,04,22.30
2013,07,13,16,05,22.20
2013,07,13,16,06,22.00
2013,07,13,16,07,22.00
2013,07,13,16,08,22.10
2013,07,13,16,09,22.20
2013,07,13,16,10,22.20
2013,07,13,16,11,22.30
2013,07,13,16,12,22.30
2013,07,13,16,13,22.30
2013,07,13,16,14,22.30
2013,07,13,16,15,22.30
2013,07,13,16,16,22.30
2013,07,13,16,17,22.30
2013,07,13,16,18,22.30
2013,07,13,16,19,22.40
2013,07,13,16,20,22.40
2013,07,13,16,21,22.60
2013,07,13,16,22,22.60
2013,07,13,16,23,22.70
2013,07,13,16,24,22.70
2013,07,13,16,25,22.80
2013,07,13,16,26,22.80
2013,07,13,16,27,22.90
2013,07,13,16,28,22.90
2013,07,13,16,29,23.00
2013,07,13,16,30,23.10
2013,07,13,16,31,23.10
2013,07,13,16,32,23.10
2013,07,13,16,33,23.10
2013,07,13,16,34,23.10
2013,07,13,16,35,23.10
2013,07,13,16,36,23.10
2013,07,13,16,37,23.00
2013,07,13,16,38,22.90
2013,07,13,16,39,22.90
2013,07,13,16,40,22.90
2013,07,13,16,41,22.90
2013,07,13,16,42,22.90
2013,07,13,16,43,23.00
2013,07,13,16,44,23.10
2013,07,13,16,45,23.10
2013,07,13,16,46,23.00
2013,07,13,16,47,22.70
2013,07,13,16,48,22.60
2013,07,13,16,49,22.50
2013,07,13,16,50,22.50
2013,07,13,16,51,22.50
2013,07,13,16,52,22.60
2013,07,13,16,53,22.60
2013,07,13,16,54,22.70
2013,07,13,16,55,22.70
2013,07,13,16,56,22.90
2013,07,13,16,57,22.90
2013,07,13,16,58,22.90
2013,07,13,16,59,22.90
2013,07,13,17,00,22.90
2013,07,13,17,01,22.90
2013,07,13,17,02,22.90
2013,07,13,17,03,22.90
2013,07,13,17,04,22.90
2013,07,13,17,05,22.80
2013,07,13,17,06,22.90
2013,07,13,17,07,22.90
2013,07,13,17,08,22.90
2013,07,13,17,09,23.00
2013,07,13,17,10,23.10
2013,07,13,17,11,23.20
2013,07,13,17,12,23.30
2013,07,13,17,13,23.30
2013,07,13,17,14,23.30
2013,07,13,17,15,23.40
2013,07,13,17,16,23.40
2013,07,13,17,17,23.40
2013,07,13,17,18,23.40
2013,07,13,17,19,23.30